Time,TemperatureF,DewpointF,PressureIn,WindDirection,WindDirectionDegrees,WindSpeedMPH,WindSpeedGustMPH,Humidity,HourlyPrecipIn,Conditions,Clouds,dailyrainin,SoftwareType,DateUTC
2013-01-24 00:00:00,35.0,35.0,-100.00,North,-999,0.0,0.0,100,-99.99,,,0.00,,2013-01-24 08:00:00,
2013-01-24 00:12:00,38.0,38.0,-100.00,North,-999,0.0,0.0,100,-99.99,,,0.00,,2013-01-24 08:12:00,
2013-01-24 00:20:00,35.0,35.0,-100.00,North,-999,0.0,0.0,100,-99.99,,,0.00,,2013-01-24 08:20:00,
2013-01-24 00:30:00,36.0,36.0,-100.00,North,-999,0.0,0.0,100,-99.99,,,0.00,,2013-01-24 08:30:00,
2013-01-24 00:40:00,37.0,37.0,-100.00,North,-999,0.0,0.0,100,-99.99,,,-99.99,,2013-01-24 08:40:00,
2013-01-24 00:42:00,38.0,38.0,-100.00,North,-999,0.0,0.0,100,-99.99,,,-99.99,,2013-01-24 08:42:00,
2013-01-24 00:52:00,35.0,35.0,-100.00,North,-999,0.0,0.0,100,-99.99,,,0.00,,2013-01-24 08:52:00,
2013-01-24 01:00:00,39.0,39.0,-100.00,North,-999,0.0,0.0,100,-99.99,,,0.00,,2013-01-24 09:00:00,
2013-01-24 01:12:00,35.0,35.0,-100.00,North,-999,0.0,0.0,100,-99.99,,,0.00,,2013-01-24 09:12:00,
2013-01-24 01:20:00,35.0,35.0,-100.00,North,-999,0.0,0.0,100,-99.99,,,0.00,,2013-01-24 09:20:00,
2013-01-24 01:30:00,35.0,35.0,-100.00,North,-999,0.0,0.0,100,-99.99,,,0.00,,2013-01-24 09:30:00,
2013-01-24 01:50:00,37.0,37.0,-100.00,North,-999,0.0,0.0,100,-99.99,,,0.00,,2013-01-24 09:50:00,
2013-01-24 02:00:00,37.0,37.0,-100.00,North,-999,0.0,0.0,100,-99.99,,,0.00,,2013-01-24 10:00:00,
2013-01-24 02:12:00,35.0,35.0,-100.00,North,-999,0.0,0.0,100,-99.99,,,0.00,,2013-01-24 10:12:00,
2013-01-24 02:20:00,36.0,36.0,-100.00,North,-999,0.0,0.0,100,-99.99,,,0.00,,2013-01-24 10:20:00,
2013-01-24 02:42:00,37.0,37.0,-100.00,North,-999,0.0,0.0,100,-99.99,,,0.00,,2013-01-24 10:42:00,
2013-01-24 02:50:00,37.0,37.0,-100.00,North,-999,0.0,0.0,100,-99.99,,,0.00,,2013-01-24 10:50:00,
2013-01-24 03:00:00,37.0,37.0,-100.00,North,-999,0.0,0.0,100,-99.99,,,0.00,,2013-01-24 11:00:00,
2013-01-24 03:12:00,36.0,36.0,-100.00,North,-999,0.0,0.0,100,-99.99,,,0.00,,2013-01-24 11:12:00,
2013-01-24 03:20:00,37.0,37.0,-100.00,North,-999,0.0,0.0,100,-99.99,,,0.00,,2013-01-24 11:20:00,
2013-01-24 03:30:00,36.0,36.0,-100.00,North,-999,0.0,0.0,100,-99.99,,,0.00,,2013-01-24 11:30:00,
2013-01-24 03:43:00,37.0,37.0,-100.00,North,-999,0.0,0.0,100,-99.99,,,0.00,,2013-01-24 11:43:00,
2013-01-24 03:50:00,37.0,37.0,-100.00,North,-999,0.0,0.0,100,-99.99,,,0.00,,2013-01-24 11:50:00,
2013-01-24 04:00:00,37.0,37.0,-100.00,North,-999,0.0,0.0,100,-99.99,,,0.00,,2013-01-24 12:00:00,
2013-01-24 04:12:00,37.0,37.0,-100.00,North,-999,0.0,0.0,100,-99.99,,,0.00,,2013-01-24 12:12:00,
2013-01-24 04:20:00,37.0,37.0,-100.00,North,-999,0.0,0.0,100,-99.99,,,0.00,,2013-01-24 12:20:00,
2013-01-24 04:30:00,39.0,39.0,-100.00,North,-999,0.0,0.0,100,-99.99,,,-99.99,,2013-01-24 12:30:00,
2013-01-24 04:42:00,37.0,37.0,-100.00,North,-999,0.0,0.0,100,-99.99,,,0.00,,2013-01-24 12:42:00,
2013-01-24 04:50:00,37.0,37.0,-100.00,North,-999,0.0,0.0,100,-99.99,,,0.00,,2013-01-24 12:50:00,
2013-01-24 05:00:00,37.0,37.0,-100.00,North,-999,0.0,0.0,100,-99.99,,,0.00,,2013-01-24 13:00:00,
2013-01-24 05:10:00,37.0,37.0,-100.00,North,-999,0.0,0.0,100,-99.99,,,-99.99,,2013-01-24 13:10:00,
2013-01-24 05:12:00,37.0,37.0,-100.00,North,-999,0.0,0.0,100,-99.99,,,0.00,,2013-01-24 13:12:00,
2013-01-24 05:30:00,37.0,37.0,-100.00,North,-999,0.0,0.0,100,-99.99,,,0.00,,2013-01-24 13:30:00,
2013-01-24 05:42:00,37.0,37.0,-100.00,North,-999,0.0,0.0,100,-99.99,,,0.00,,2013-01-24 13:42:00,
2013-01-24 05:50:00,38.0,38.0,-100.00,North,-999,0.0,0.0,100,-99.99,,,0.00,,2013-01-24 13:50:00,
2013-01-24 06:20:00,38.0,38.0,-100.00,North,-999,0.0,0.0,100,-99.99,,,0.00,,2013-01-24 14:20:00,
2013-01-24 06:30:00,38.0,38.0,-100.00,North,-999,0.0,0.0,100,-99.99,,,-99.99,,2013-01-24 14:30:00,
2013-01-24 06:43:00,38.0,38.0,-100.00,North,-999,0.0,0.0,100,-99.99,,,0.00,,2013-01-24 14:43:00,
2013-01-24 06:50:00,37.0,37.0,-100.00,North,-999,0.0,0.0,100,-99.99,,,0.00,,2013-01-24 14:50:00,
2013-01-24 07:12:00,38.0,38.0,-100.00,North,-999,0.0,0.0,100,-99.99,,,0.00,,2013-01-24 15:12:00,
2013-01-24 07:20:00,37.0,37.0,-100.00,North,-999,0.0,0.0,100,-99.99,,,0.00,,2013-01-24 15:20:00,
2013-01-24 07:30:00,36.0,36.0,-100.00,North,-999,0.0,0.0,100,-99.99,,,-99.99,,2013-01-24 15:30:00,
2013-01-24 07:43:00,37.0,37.0,-100.00,North,-999,0.0,0.0,100,-99.99,,,0.00,,2013-01-24 15:43:00,
2013-01-24 08:00:00,36.0,36.0,-100.00,North,-999,0.0,0.0,100,-99.99,,,0.00,,2013-01-24 16:00:00,
2013-01-24 08:12:00,37.0,37.0,-100.00,North,-999,0.0,0.0,100,-99.99,,,0.00,,2013-01-24 16:12:00,
2013-01-24 08:20:00,37.0,37.0,-100.00,North,-999,0.0,0.0,100,-99.99,,,0.00,,2013-01-24 16:20:00,
2013-01-24 08:30:00,38.0,38.0,-100.00,North,-999,0.0,0.0,100,-99.99,,,0.00,,2013-01-24 16:30:00,
2013-01-24 09:00:00,39.0,39.0,-100.00,North,-999,0.0,0.0,100,-99.99,,,0.00,,2013-01-24 17:00:00,
2013-01-24 09:12:00,37.0,37.0,-100.00,North,-999,0.0,0.0,100,-99.99,,,0.00,,2013-01-24 17:12:00,
2013-01-24 09:30:00,41.0,41.0,-100.00,North,-999,0.0,0.0,100,-99.99,,,0.00,,2013-01-24 17:30:00,
2013-01-24 09:42:00,38.0,38.0,-100.00,North,-999,0.0,0.0,100,-99.99,,,0.00,,2013-01-24 17:42:00,
2013-01-24 10:00:00,44.0,44.0,-100.00,North,-999,0.0,0.0,100,-99.99,,,0.00,,2013-01-24 18:00:00,
2013-01-24 10:12:00,41.0,41.0,-100.00,North,-999,0.0,0.0,100,-99.99,,,0.00,,2013-01-24 18:12:00,
2013-01-24 10:20:00,44.0,44.0,-100.00,North,-999,0.0,0.0,100,-99.99,,,0.00,,2013-01-24 18:20:00,
2013-01-24 10:30:00,44.0,44.0,-100.00,North,-999,0.0,0.0,100,-99.99,,,0.00,,2013-01-24 18:30:00,
2013-01-24 10:42:00,42.0,42.0,-100.00,North,-999,0.0,0.0,100,-99.99,,,0.00,,2013-01-24 18:42:00,
2013-01-24 10:50:00,44.0,44.0,-100.00,North,-999,0.0,0.0,100,-99.99,,,0.00,,2013-01-24 18:50:00,
2013-01-24 11:12:00,44.0,44.0,-100.00,North,-999,0.0,0.0,100,-99.99,,,0.00,,2013-01-24 19:12:00,
2013-01-24 11:30:00,45.0,45.0,-100.00,North,-999,0.0,0.0,100,-99.99,,,0.00,,2013-01-24 19:30:00,
2013-01-24 11:42:00,44.0,44.0,-100.00,North,-999,0.0,0.0,100,-99.99,,,0.00,,2013-01-24 19:42:00,
2013-01-24 11:50:00,46.0,46.0,-100.00,North,-999,0.0,0.0,100,-99.99,,,-99.99,,2013-01-24 19:50:00,
2013-01-24 12:00:00,46.0,46.0,-100.00,North,-999,0.0,0.0,100,-99.99,,,0.00,,2013-01-24 20:00:00,
2013-01-24 12:11:00,44.0,44.0,-100.00,North,-999,0.0,0.0,100,-99.99,,,0.00,,2013-01-24 20:11:00,
2013-01-24 12:20:00,47.0,47.0,-100.00,North,-999,0.0,0.0,100,-99.99,,,0.00,,2013-01-24 20:20:00,
2013-01-24 12:30:00,47.0,47.0,-100.00,North,-999,0.0,0.0,100,-99.99,,,0.00,,2013-01-24 20:30:00,
2013-01-24 12:42:00,46.0,46.0,-100.00,North,-999,0.0,0.0,100,-99.99,,,-99.99,,2013-01-24 20:42:00,
2013-01-24 13:00:00,49.0,49.0,-100.00,North,-999,0.0,0.0,100,-99.99,,,0.00,,2013-01-24 21:00:00,
2013-01-24 13:12:00,47.0,47.0,-100.00,North,-999,0.0,0.0,100,-99.99,,,0.00,,2013-01-24 21:12:00,
2013-01-24 13:20:00,48.0,48.0,-100.00,North,-999,0.0,0.0,100,-99.99,,,0.00,,2013-01-24 21:20:00,
2013-01-24 13:42:00,48.0,48.0,-100.00,North,-999,0.0,0.0,100,-99.99,,,0.00,,2013-01-24 21:42:00,
2013-01-24 13:50:00,50.0,50.0,-100.00,North,-999,0.0,0.0,100,-99.99,,,0.00,,2013-01-24 21:50:00,
2013-01-24 14:00:00,51.0,51.0,-100.00,North,-999,0.0,0.0,100,-99.99,,,0.00,,2013-01-24 22:00:00,
2013-01-24 14:12:00,48.0,48.0,-100.00,North,-999,0.0,0.0,100,-99.99,,,0.00,,2013-01-24 22:12:00,
2013-01-24 14:20:00,51.0,51.0,-100.00,North,-999,0.0,0.0,100,-99.99,,,0.00,,2013-01-24 22:20:00,
2013-01-24 14:30:00,51.0,51.0,-100.00,North,-999,0.0,0.0,100,-99.99,,,0.00,,2013-01-24 22:30:00,
2013-01-24 14:42:00,50.0,50.0,-100.00,North,-999,0.0,0.0,100,-99.99,,,0.00,,2013-01-24 22:42:00,
2013-01-24 14:50:00,52.0,52.0,-100.00,North,-999,0.0,0.0,100,-99.99,,,0.00,,2013-01-24 22:50:00,
2013-01-24 15:00:00,51.0,51.0,-100.00,North,-999,0.0,0.0,100,-99.99,,,0.00,,2013-01-24 23:00:00,
2013-01-24 15:12:00,51.0,51.0,-100.00,North,-999,0.0,0.0,100,-99.99,,,0.00,,2013-01-24 23:12:00,
2013-01-24 15:30:00,50.0,50.0,-100.00,North,-999,0.0,0.0,100,-99.99,,,0.00,,2013-01-24 23:30:00,
2013-01-24 15:40:00,50.0,50.0,-100.00,North,-999,0.0,0.0,100,-99.99,,,-99.99,,2013-01-24 23:40:00,
2013-01-24 15:42:00,52.0,52.0,-100.00,North,-999,0.0,0.0,100,-99.99,,,0.00,,2013-01-24 23:42:00,
2013-01-24 16:00:00,49.0,49.0,-100.00,North,-999,0.0,0.0,100,-99.99,,,0.00,,2013-01-25 00:00:00,
2013-01-24 16:12:00,50.0,50.0,-100.00,North,-999,0.0,0.0,100,-99.99,,,0.00,,2013-01-25 00:12:00,
2013-01-24 16:20:00,49.0,49.0,-100.00,North,-999,0.0,0.0,100,-99.99,,,0.00,,2013-01-25 00:20:00,
2013-01-24 16:22:00,50.0,50.0,-100.00,North,-999,0.0,0.0,100,-99.99,,,0.00,,2013-01-25 00:22:00,
2013-01-24 16:30:00,48.0,48.0,-100.00,North,-999,0.0,0.0,100,-99.99,,,-99.99,,2013-01-25 00:30:00,
2013-01-24 16:50:00,47.0,47.0,-100.00,North,-999,0.0,0.0,100,-99.99,,,0.00,,2013-01-25 00:50:00,
2013-01-24 17:00:00,47.0,47.0,-100.00,North,-999,0.0,0.0,100,-99.99,,,0.00,,2013-01-25 01:00:00,
2013-01-24 17:12:00,49.0,49.0,-100.00,North,-999,0.0,0.0,100,-99.99,,,0.00,,2013-01-25 01:12:00,
2013-01-24 17:20:00,46.0,46.0,-100.00,North,-999,0.0,0.0,100,-99.99,,,-99.99,,2013-01-25 01:20:00,
2013-01-24 17:30:00,46.0,46.0,-100.00,North,-999,0.0,0.0,100,-99.99,,,0.00,,2013-01-25 01:30:00,
2013-01-24 17:40:00,45.0,45.0,-100.00,North,-999,0.0,0.0,100,-99.99,,,0.00,,2013-01-25 01:40:00,
2013-01-24 17:42:00,47.0,47.0,-100.00,North,-999,0.0,0.0,100,-99.99,,,0.00,,2013-01-25 01:42:00,
2013-01-24 18:11:00,46.0,46.0,-100.00,North,-999,0.0,0.0,100,-99.99,,,-99.99,,2013-01-25 02:11:00,
2013-01-24 18:20:00,47.0,47.0,-100.00,North,-999,0.0,0.0,100,-99.99,,,0.00,,2013-01-25 02:20:00,
2013-01-24 18:30:00,47.0,47.0,-100.00,North,-999,0.0,0.0,100,-99.99,,,0.00,,2013-01-25 02:30:00,
2013-01-24 18:50:00,47.0,47.0,-100.00,North,-999,0.0,0.0,100,-99.99,,,-99.99,,2013-01-25 02:50:00,
2013-01-24 19:00:00,46.0,46.0,-100.00,North,-999,0.0,0.0,100,-99.99,,,0.00,,2013-01-25 03:00:00,
2013-01-24 19:12:00,47.0,47.0,-100.00,North,-999,0.0,0.0,100,-99.99,,,0.00,,2013-01-25 03:12:00,
2013-01-24 19:30:00,47.0,47.0,-100.00,North,-999,0.0,0.0,100,-99.99,,,-99.99,,2013-01-25 03:30:00,
2013-01-24 19:41:00,47.0,47.0,-100.00,North,-999,0.0,0.0,100,-99.99,,,-99.99,,2013-01-25 03:41:00,
2013-01-24 20:00:00,47.0,47.0,-100.00,North,-999,0.0,0.0,100,-99.99,,,0.00,,2013-01-25 04:00:00,
2013-01-24 20:10:00,46.0,46.0,-100.00,North,-999,0.0,0.0,100,-99.99,,,0.00,,2013-01-25 04:10:00,
2013-01-24 20:12:00,46.0,46.0,-100.00,North,-999,0.0,0.0,100,-99.99,,,-99.99,,2013-01-25 04:12:00,
2013-01-24 20:30:00,48.0,48.0,-100.00,North,-999,0.0,0.0,100,-99.99,,,0.00,,2013-01-25 04:30:00,
2013-01-24 20:41:00,48.0,48.0,-100.00,North,-999,0.0,0.0,100,-99.99,,,0.00,,2013-01-25 04:41:00,
2013-01-24 20:50:00,46.0,46.0,-100.00,North,-999,0.0,0.0,100,-99.99,,,-99.99,,2013-01-25 04:50:00,
2013-01-24 21:00:00,47.0,47.0,-100.00,North,-999,0.0,0.0,100,-99.99,,,0.00,,2013-01-25 05:00:00,
2013-01-24 21:30:00,46.0,46.0,-100.00,North,-999,0.0,0.0,100,-99.99,,,0.00,,2013-01-25 05:30:00,
2013-01-24 21:43:00,46.0,46.0,-100.00,North,-999,0.0,0.0,100,-99.99,,,-99.99,,2013-01-25 05:43:00,
2013-01-24 21:50:00,47.0,47.0,-100.00,North,-999,0.0,0.0,100,-99.99,,,0.00,,2013-01-25 05:50:00,
2013-01-24 22:00:00,47.0,47.0,-100.00,North,-999,0.0,0.0,100,-99.99,,,0.00,,2013-01-25 06:00:00,
2013-01-24 22:11:00,46.0,46.0,-100.00,North,-999,0.0,0.0,100,-99.99,,,0.00,,2013-01-25 06:11:00,
2013-01-24 22:20:00,47.0,47.0,-100.00,North,-999,0.0,0.0,100,-99.99,,,0.00,,2013-01-25 06:20:00,
2013-01-24 22:30:00,47.0,47.0,-100.00,North,-999,0.0,0.0,100,-99.99,,,0.00,,2013-01-25 06:30:00,
2013-01-24 22:41:00,47.0,47.0,-100.00,North,-999,0.0,0.0,100,-99.99,,,0.00,,2013-01-25 06:41:00,
2013-01-24 22:50:00,46.0,46.0,-100.00,North,-999,0.0,0.0,100,-99.99,,,0.00,,2013-01-25 06:50:00,
2013-01-24 23:00:00,46.0,46.0,-100.00,North,-999,0.0,0.0,100,-99.99,,,0.00,,2013-01-25 07:00:00,
2013-01-24 23:11:00,47.0,47.0,-100.00,North,-999,0.0,0.0,100,-99.99,,,0.00,,2013-01-25 07:11:00,
2013-01-24 23:30:00,45.0,45.0,-100.00,North,-999,0.0,0.0,100,-99.99,,,0.00,,2013-01-25 07:30:00,
2013-01-24 23:42:00,46.0,46.0,-100.00,North,-999,0.0,0.0,100,-99.99,,,0.00,,2013-01-25 07:42:00,
2013-01-24 23:50:00,46.0,46.0,-100.00,North,-999,0.0,0.0,100,-99.99,,,0.00,,2013-01-25 07:50:00,